Dewpoint
76 76 77 76 76 77 75 76 76 76 73 72 72 71 71 69 70 71 70 67 66 67 66 66 67 68 60 58 62 66 63 63 58 58 56 60 67 66 64 65 62 63 59
74 76 76 77 76 76 76 76 76 75 74 72 72 71 69 69 69 69 68 64 65 65 66 67 65 60 67 69 61 66 61 63 56 63 61 58 64 66 67 67 62 57 59
72 73 76 76 76 76 76 76 76 75 73 71 71 71 69 69 69 69 68 67 66 64 64 64 63 64 67 63 64 63 57 62 64 59 57 56 59 59 61 65 65 63 59
67 70 75 76 77 76 77 77 76 74 72 71 71 70 69 69 67 68 66 66 65 65 64 65 64 64 66 68 66 68 66 61 61 58 58 57 59 62 60 62 58 58 58
70 71 74 77 78 78 77 76 75 74 71 71 70 67 67 64 63 68 66 65 67 65 65 64 66 66 65 64 61 64 67 61 55 54 55 54 52 61 60 57 56 55 57
72 72 75 77 78 77 76 76 74 72 71 70 68 65 66 64 62 63 66 64 67 67 66 67 67 66 66 64 64 64 63 64 64 58 57 56 61 59 56 54 54 52 51
74 74 76 77 77 76 75 75 74 72 70 69 68 67 67 68 60 61 63 65 65 67 67 68 67 67 65 65 64 64 63 62 61 62 61 61 61 62 62 61 60 57 54
74 75 76 76 76 75 74 75 74 72 70 69 68 69 68 68 60 60 62 65 67 67 67 67 67 66 65 64 64 64 63 64 65 62 64 62 63 61 60 58 60 59 56
74 75 75 75 75 74 72 73 73 72 70 69 68 69 69 69 59 59 62 64 64 67 67 67 65 65 62 61 61 60 61 63 59 58 58 57 56 56 56 54 52 52 53
73 74 75 75 74 73 72 73 73 72 70 69 68 69 65 69 60 58 61 70 68 63 67 67 61 63 58 58 61 61 60 60 61 59 58 58 58 58 57 58 56 53 54
72 73 74 73 73 73 73 73 71 69 68 68 68 67 68 68 68 56 56 69 65 66 62 63 62 58 55 54 55 61 58 57 58 56 53 52 53 52 49 57 61 56 50
73 72 72 73 71 71 72 71 70 69 69 68 68 67 70 71 63 56 55 56 61 64 61 62 61 56 54 52 53 55 52 51 52 50 49 49 46 46 47 51 58 56 53
73 74 74 73 71 72 70 69 67 68 66 67 65 69 69 70 67 55 53 54 56 60 62 57 53 51 51 51 52 52 50 51 50 50 49 46 45 47 56 54 56 59 58
73 72 71 70 70 69 67 68 67 67 67 68 67 67 65 69 65 64 61 60 56 58 55 56 55 54 54 52 53 52 52 52 50 49 46 46 45 44 43 42 39 38 38
70 69 69 68 68 67 60 60 67 64 59 65 65 65 64 62 62 56 56 59 59 56 58 58 55 54 53 53 53 56 55 54 49 47 45 44 42 41 39 37 36 38 40
68 67 66 66 65 64 62 57 45 46 45 46 48 56 56 49 45 43 42 43 45 46 54 54 51 51 53 56 56 55 55 50 47 46 45 43 40 39 36 35 36 38 42
66 66 64 62 62 61 61 59 58 50 44 42 42 43 47 46 42 42 42 42 43 46 49 49 49 51 56 55 53 48 45 45 51 44 43 41 39 37 34 33 34 37 43
64 58 62 59 58 57 57 57 55 56 55 53 45 46 41 41 41 41 41 43 47 46 47 46 46 51 49 47 46 45 44 44 43 42 40 38 35 34 33 33 33 36 40
59 57 56 55 54 54 54 54 53 54 54 53 49 46 44 41 41 42 42 47 45 44 42 43 44 44 44 45 45 45 46 43 39 37 37 35 33 32 33 32 32 36 39
57 57 55 54 54 54 54 53 52 52 53 51 50 50 48 46 46 46 47 48 45 41 40 41 41 43 44 45 44 42 40 37 37 35 33 33 33 32 30 30 31 31 33
55 53 58 53 54 54 53 52 50 51 51 51 52 51 47 48 46 46 46 45 45 43 44 43 43 44 44 44 39 35 33 33 34 32 31 32 32 31 32 31 30 29 30
54 52 52 51 52 55 56 57 55 50 52 53 51 49 45 46 46 45 46 46 45 46 44 45 43 42 40 36 32 31 33 32 32 32 32 32 32 32 31 31 30 30 30
52 53 52 55 56 55 52 51 54 55 53 52 51 49 48 44 46 46 46 46 46 45 45 44 44 41 38 33 30 35 35 32 32 33 33 33 33 33 33 32 30 30 31
56 53 55 57 56 56 56 55 55 50 50 51 51 49 49 47 46 47 48 45 45 45 44 43 39 36 33 32 29 30 32 35 34 33 36 35 34 34 33 32 30 31 31
49 49 52 53 55 51 49 50 53 53 50 50 48 49 49 47 46 46 46 46 43 44 42 41 38 35 34 33 30 32 31 28 32 31 31 37 36 38 32 30 31 29 31
46 46 46 51 51 55 52 53 55 55 53 49 50 49 46 47 45 44 44 45 42 42 42 40 38 36 32 30 30 30 27 26 30 29 30 34 34 33 29 31 30 27 29
Lifted_Index
-9 -9 -9 -9 -8 -8 -8 -8 -8 -7 -5 -5 -4 -4 -4 -3 -2 -2 -2 -1 -1 -2 -2 -2 -1 -1 -1 -1 -1 -1 -0 1 1 1 2 2 1 1 1 1 2 3 3
-8 -9 -9 -9 -9 -8 -8 -8 -8 -7 -6 -5 -4 -4 -3 -3 -2 -2 -1 -1 -1 -1 -2 -1 -1 -1 -1 -1 -1 -1 -0 0 0 1 1 2 1 1 1 1 2 3 3
-8 -8 -9 -9 -9 -9 -9 -8 -8 -7 -6 -5 -4 -4 -3 -3 -2 -2 -2 -1 -1 -1 -1 -1 -1 -1 -2 -2 -2 -1 -1 -0 -0 0 1 1 1 1 1 2 2 2 2
-7 -8 -9 -9 -10 -9 -9 -9 -8 -7 -6 -5 -4 -3 -3 -2 -2 -2 -2 -1 -1 -1 -1 -1 -1 -1 -2 -2 -2 -1 -1 -0 0 1 1 2 2 1 1 2 2 2 2
-8 -8 -9 -10 -10 -10 -9 -9 -8 -7 -5 -4 -4 -3 -2 -2 -2 -2 -2 -1 -1 -1 -1 -1 -1 -1 -1 -1 -1 -1 -1 0 1 1 2 2 2 2 2 2 3 3 3
-9 -9 -9 -10 -10 -10 -9 -9 -8 -7 -5 -4 -3 -2 -2 -2 -1 -1 -1 -1 -2 -2 -2 -2 -2 -1 -1 -0 0 0 0 1 1 1 2 2 2 2 2 2 3 3 3
-9 -9 -10 -10 -10 -9 -9 -9 -8 -7 -5 -4 -3 -3 -3 -3 -1 -1 -1 -1 -2 -2 -2 -2 -2 -1 0 0 1 1 1 1 1 1 1 1 1 1 2 2 2 2 2
-10 -10 -10 -10 -10 -9 -8 -8 -8 -7 -5 -5 -4 -3 -3 -3 -2 -1 -1 -2 -2 -3 -3 -2 -2 -0 1 1 1 1 1 0 0 0 1 1 1 2 3 3 3 3 2
-10 -10 -10 -10 -9 -8 -8 -8 -7 -7 -6 -5 -4 -4 -4 -4 -3 -3 -2 -2 -3 -3 -3 -2 -1 -0 1 2 2 2 1 1 0 1 1 2 2 3 4 4 3 3 2
-10 -10 -10 -9 -9 -8 -7 -7 -7 -6 -5 -5 -4 -4 -4 -4 -4 -3 -3 -3 -3 -3 -3 -2 -1 0 1 2 2 2 2 1 1 1 2 3 3 3 3 3 2 2 2
-9 -9 -9 -8 -8 -8 -7 -7 -6 -6 -5 -5 -4 -4 -4 -4 -4 -3 -3 -3 -3 -3 -3 -2 -1 0 1 1 2 2 2 2 2 2 3 3 3 3 3 2 1 2 2
-8 -8 -8 -8 -8 -7 -6 -6 -5 -5 -5 -4 -4 -4 -4 -4 -4 -3 -3 -3 -3 -2 -2 -1 -1 -1 -0 0 1 1 2 3 3 3 3 3 3 3 3 2 2 2 2
-8 -8 -8 -8 -7 -6 -5 -5 -5 -5 -5 -4 -4 -4 -4 -4 -3 -3 -2 -2 -1 -1 -1 -1 -1 -1 -0 0 1 1 2 3 3 3 3 3 3 3 3 3 3 3 4
-8 -7 -7 -6 -6 -5 -4 -4 -4 -4 -4 -4 -4 -4 -4 -3 -3 -2 -1 -0 -0 -0 -1 -1 -1 -1 -0 0 1 2 2 2 2 2 3 4 4 4 4 5 5 6 5
-6 -6 -5 -5 -5 -4 -4 -4 -3 -3 -3 -3 -3 -3 -2 -2 -1 -0 0 0 0 -0 -0 -1 -1 -0 -0 0 1 1 1 2 2 3 3 4 5 5 6 7 7 7 6
-6 -5 -5 -4 -4 -4 -3 -3 -2 -2 -1 -1 -1 -1 -1 -1 -1 -0 0 0 -0 -0 -0 -0 -0 -0 -0 0 0 1 1 2 3 3 4 5 5 6 7 7 7 6 5
-5 -4 -4 -4 -3 -3 -3 -2 -1 -0 1 1 1 0 0 -0 -1 -0 0 0 0 1 1 1 0 0 0 0 1 1 2 3 4 4 5 6 6 7 8 8 7 6 5
-4 -3 -3 -2 -2 -2 -1 -1 -0 0 1 2 2 1 1 0 -0 0 1 1 2 2 2 2 1 1 1 1 2 3 3 4 5 5 6 7 7 8 8 8 8 7 6
-2 -2 -1 -1 -1 -1 -0 -0 0 1 1 2 2 1 1 0 1 1 2 2 2 3 3 3 3 3 3 3 3 4 5 5 6 7 7 7 8 8 8 8 8 8 7
-1 -0 -0 -0 -0 0 0 0 0 0 1 1 2 1 1 1 2 2 3 3 3 3 4 4 4 4 4 4 5 6 6 7 7 7 8 8 8 8 8 8 8 8 8
-0 0 0 0 0 0 0 -0 0 0 0 1 1 1 1 2 2 3 3 3 3 4 5 5 5 5 5 6 7 7 7 7 7 8 8 8 8 8 8 8 8 8 8
-0 0 0 0 0 0 -0 -0 -0 0 0 1 1 1 2 2 3 2 3 3 4 4 5 5 6 6 7 8 9 9 8 8 8 8 9 9 8 8 8 8 8 8 8
-0 -0 -0 -0 -0 0 -0 -0 -0 0 0 1 1 1 1 2 2 2 2 3 4 4 5 6 6 7 9 10 10 10 9 9 9 9 9 9 8 8 8 8 8 8 8
-0 -0 -0 -0 -0 -0 -0 0 -0 0 0 0 0 1 1 2 2 2 3 3 4 4 5 6 7 8 10 11 11 11 10 10 11 11 10 9 8 8 8 8 8 8 8
1 0 0 0 0 0 0 0 -0 -0 -0 -0 0 0 1 2 2 3 3 3 4 5 5 6 8 9 10 11 12 12 12 12 13 12 11 9 8 8 8 8 8 8 8
1 1 1 1 1 0 0 -0 -0 -0 -0 -0 -0 0 1 2 3 3 3 4 4 5 5 6 8 9 10 11 12 12 13 14 14 13 12 10 8 8 8 8 8 8 8